Flag for Cambodia Weather past 2 weeks in Phnom Penh, Cambodia

Now
77 °F

Thunderstorms. Scattered clouds.


Feels Like: 78 °F
Forecast: 77 / 97 °F
Wind: 10 mph from South

Location: Phnom-Penh / Pochentong

Current Time: Aug 20, 2014 at 6:24:42 PM

Latest Report: Aug 20, 2014 at 5:30 PM


Visibility: 4 mi

Pressure: 29.74 "Hg

Humidity: 94%

Dew point: 75 °F

Location of Phnom PenhLocation

Historic Weather in Phnom Penh — Graph

°F

Phnom Penh temperature yesterday

Maximum temperature yesterday: 93 °F (at 1:00 PM)
Minimum temperature yesterday: 79 °F (at 12:00 AM)
Average temperature yesterday: 85 °F

Past Weeks' High & Low Weather Summary

 TemperatureHumidityPressure
High99 °F (Aug 12, 1:30 PM)100% (Aug 18, 6:00 PM)29.86 "Hg (Aug 18, 6:00 PM)
Low73 °F (Aug 18, 6:00 PM)37% (Aug 11, 12:30 PM)29.62 "Hg (Aug 12, 3:00 PM)
Average86 °F69%29.76 "Hg
* Reported Aug 5 5:00 PM — Aug 20 5:30 PM, Phnom Penh, Weather by CustomWeather, © 2014

Note: Actual official high and low records may vary slightly from our data, if they occured in-between our weather recording intervals... More about our weather records

Advertising

Phnom Penh weather history for previous 24 hours

 ConditionsComfort  
Time TempWeatherWind HumidityBarometerVisibility
5:30 PM
Aug 20
77 °FThunderstorms. Scattered clouds.10 mph94%29.74 "Hg4 mi
5:00 PM79 °FThunderstorms. Scattered clouds.16 mph89%29.71 "Hg2 mi
4:30 PM86 °FScattered clouds.9 mph70%29.71 "HgN/A
4:00 PM90 °FScattered clouds.14 mph67%29.71 "HgN/A
3:30 PM95 °FScattered clouds.3 mph50%29.68 "HgN/A
3:00 PM95 °FScattered clouds.3 mph50%29.71 "HgN/A
2:30 PM93 °FScattered clouds.3 mph53%29.71 "HgN/A
2:00 PM93 °FScattered clouds.6 mph53%29.71 "HgN/A
1:30 PM93 °FScattered clouds.5 mph56%29.74 "HgN/A
12:30 PM93 °FScattered clouds.5 mph53%29.77 "HgN/A
12:00 PM91 °FScattered clouds.6 mph56%29.77 "HgN/A
11:30 AM91 °FScattered clouds.6 mph56%29.80 "HgN/A
11:00 AM90 °FScattered clouds.6 mph59%29.80 "HgN/A
10:30 AM90 °FPassing clouds.7 mph59%29.83 "HgN/A
10:00 AM90 °FPassing clouds.6 mph63%29.83 "HgN/A
9:30 AM88 °FPassing clouds.6 mph66%29.83 "HgN/A
9:00 AM86 °FPassing clouds.6 mph70%29.83 "HgN/A
8:30 AM86 °FSunny.6 mph70%29.83 "Hg10 mi
8:00 AM84 °FSunny.5 mph74%29.83 "Hg10 mi
7:30 AM82 °FSunny.7 mph79%29.80 "Hg10 mi
6:30 AM81 °FScattered clouds.2 mph89%29.77 "HgN/A
6:00 AM79 °FScattered clouds.1 mph89%29.77 "HgN/A
1:00 AM81 °FPartly cloudy.6 mph89%29.77 "Hg6 mi
12:30 AM81 °FPartly cloudy.3 mph84%29.80 "Hg6 mi
12:00 AM82 °FPartly cloudy.1 mph79%29.80 "Hg6 mi
11:30 PM
Aug 19
82 °FPartly cloudy.1 mph79%29.80 "Hg6 mi
11:00 PM82 °FPartly cloudy.3 mph84%29.80 "Hg6 mi
10:30 PM82 °FPartly cloudy.2 mph79%29.80 "Hg6 mi
10:00 PM82 °FPartly cloudy.No wind79%29.80 "Hg6 mi
9:30 PM82 °FPartly cloudy.1 mph79%29.80 "Hg6 mi
9:00 PM82 °FPartly cloudy.2 mph79%29.80 "Hg6 mi
8:30 PM82 °FPartly cloudy.2 mph79%29.77 "Hg6 mi
8:00 PM82 °FPartly cloudy.2 mph79%29.77 "Hg6 mi
7:30 PM82 °FPartly cloudy.2 mph79%29.77 "Hg6 mi
7:00 PM82 °FPartly cloudy.1 mph79%29.74 "Hg6 mi
6:30 PM82 °FPassing clouds.5 mph79%29.74 "Hg6 mi
6:00 PM82 °FScattered clouds.5 mph79%29.74 "HgN/A
Weather by CustomWeather, © 2014

See weather overviewHow to use our weather pages